{"data":{"norad_id":63744,"intl_designator":"2025-088W","name":"KUIPER-00031","alt_names":[],"object_type":"PAYLOAD","status":"ACTIVE","operator":null,"country":"US","launch_date":"2025-04-28","launch_site_code":"AFETR","launch_vehicle":null,"mission":null,"orbit_class":"UNKNOWN","rcs_meters":null,"size_class":null,"mass_kg":null,"dimensions":null,"purposes":[],"wikipedia_slug":null,"has_3d_model":false,"image_url":null,"decayed_at":null,"tle_current":{"epoch":"2026-05-25T05:00:47.170656Z","epoch_age_seconds":57318,"freshness":"FRESH","line1":"1 63744U 25088W   26145.20887929  .00001557  00000+0  25271-3 0  9997","line2":"2 63744  51.9000 115.8556 0001634  45.0059 315.1034 14.76381756 58906","mean_motion":14.76381756,"eccentricity":0.0001634,"inclination_deg":51.9,"raan_deg":115.8556,"arg_perigee_deg":45.0059,"mean_anomaly_deg":315.1034,"bstar":0.00025271,"rev_number":5890,"period_min":97.535748741669,"perigee_km":639.62160228332,"apogee_km":641.91538059792,"semimajor_km":7018.9054914406,"source":"CELESTRAK","updated_at":"2026-05-25T13:38:03.930060Z"}}}